{"data":{"norad_id":68211,"intl_designator":"2026-053E","name":"STARLINK-37120","alt_names":[],"object_type":"PAYLOAD","status":"ACTIVE","operator":null,"country":"US","launch_date":"2026-03-17","launch_site_code":"AFWTR","launch_vehicle":null,"mission":null,"orbit_class":"UNKNOWN","rcs_meters":null,"size_class":null,"mass_kg":null,"dimensions":null,"purposes":["comms"],"wikipedia_slug":null,"has_3d_model":false,"image_url":null,"decayed_at":null,"tle_current":{"epoch":"2026-05-25T03:38:21.956064Z","epoch_age_seconds":58621,"freshness":"FRESH","line1":"1 68211U 26053E   26145.15164301  .00015054  00000+0  46745-3 0  9996","line2":"2 68211  97.2867  20.5644 0002170  89.5004 270.6487 15.33460981 11912","mean_motion":15.33460981,"eccentricity":0.000217,"inclination_deg":97.2867,"raan_deg":20.5644,"arg_perigee_deg":89.5004,"mean_anomaly_deg":270.6487,"bstar":0.00046745,"rev_number":1191,"period_min":93.905226011095,"perigee_km":464.01055839867,"apogee_km":466.98069495865,"semimajor_km":6843.6326266787,"source":"CELESTRAK","updated_at":"2026-05-25T13:38:21.877899Z"}}}